KL101 LOWW-LOWI

Flight info

Callsign KL101
Flight time 0h 41m
Altitude 30000
Route SOVIL DCT SITNI DCT BAGSI DCT NANIT NANIT2A
Aircraft A320/M-SDE3FGHIRWY/LB1

Departure

Time 2026-04-24 07:21
Airport Vienna International Airport (LOWW)

Arrival

Time 2026-04-24 08:02
Airport Innsbruck Airport (LOWI)
Time Latitude Longitude Altitude Speed Heading
2026-04-24 07:11 48.11462 16.57012 609 ft 0 kts 206°
2026-04-24 07:11 48.11464 16.57013 609 ft 2 kts 206°
2026-04-24 07:12 48.11487 16.57032 617 ft 4 kts 213°
2026-04-24 07:12 48.11509 16.57056 622 ft 4 kts 229°
2026-04-24 07:12 48.11521 16.57088 623 ft 4 kts 273°
2026-04-24 07:12 48.11518 16.57106 609 ft 1 kts 295°
2026-04-24 07:13 48.11518 16.57107 609 ft 0 kts 295°
2026-04-24 07:15 48.11519 16.57103 609 ft 2 kts 295°
2026-04-24 07:16 48.11527 16.57078 609 ft 4 kts 295°
2026-04-24 07:16 48.11544 16.57024 619 ft 8 kts 295°
2026-04-24 07:16 48.11554 16.56942 609 ft 8 kts 251°
2026-04-24 07:16 48.11513 16.56899 620 ft 7 kts 200°
2026-04-24 07:17 48.11472 16.56875 617 ft 6 kts 204°
2026-04-24 07:17 48.11437 16.56851 622 ft 6 kts 206°
2026-04-24 07:17 48.11402 16.56826 609 ft 6 kts 206°
2026-04-24 07:17 48.11360 16.56824 615 ft 10 kts 155°
2026-04-24 07:18 48.11313 16.56961 616 ft 19 kts 122°
2026-04-24 07:18 48.11259 16.57125 609 ft 17 kts 116°
2026-04-24 07:18 48.11219 16.57240 613 ft 9 kts 128°
2026-04-24 07:18 48.11176 16.57232 616 ft 6 kts 213°
2026-04-24 07:19 48.11142 16.57200 617 ft 5 kts 211°
2026-04-24 07:19 48.11112 16.57174 621 ft 4 kts 210°
2026-04-24 07:19 48.11088 16.57153 612 ft 4 kts 210°
2026-04-24 07:19 48.11068 16.57136 609 ft 3 kts 210°
2026-04-24 07:20 48.11062 16.57084 609 ft 12 kts 294°
2026-04-24 07:20 48.11159 16.56773 620 ft 69 kts 296°
2026-04-24 07:20 48.11472 16.55817 609 ft 133 kts 296°
2026-04-24 07:20 48.11953 16.54387 853 ft 161 kts 297°
2026-04-24 07:21 48.12171 16.52752 1585 ft 167 kts 261°
2026-04-24 07:21 48.11677 16.51156 2358 ft 172 kts 244°
2026-04-24 07:21 48.11077 16.49456 2697 ft 199 kts 248°
2026-04-24 07:21 48.10391 16.47468 3004 ft 231 kts 248°
2026-04-24 07:22 48.09588 16.45247 3569 ft 255 kts 243°
2026-04-24 07:22 48.08512 16.43054 4508 ft 263 kts 239°
2026-04-24 07:22 48.07409 16.40829 5442 ft 269 kts 239°
2026-04-24 07:22 48.06278 16.38575 6417 ft 273 kts 239°
2026-04-24 07:23 48.05126 16.36280 7356 ft 278 kts 239°
2026-04-24 07:23 48.04051 16.33880 8298 ft 277 kts 250°
2026-04-24 07:23 48.03428 16.31184 9202 ft 273 kts 265°
2026-04-24 07:23 48.03322 16.28387 10081 ft 271 kts 277°
2026-04-24 07:24 48.03392 16.25473 10548 ft 293 kts 277°
2026-04-24 07:24 48.03467 16.22308 10871 ft 316 kts 276°
2026-04-24 07:24 48.03534 16.19006 11462 ft 327 kts 276°
2026-04-24 07:24 48.03592 16.15578 12205 ft 333 kts 276°
2026-04-24 07:25 48.03648 16.12092 12901 ft 338 kts 276°
2026-04-24 07:25 48.03703 16.08544 13587 ft 345 kts 276°
2026-04-24 07:25 48.03759 16.04931 14291 ft 350 kts 276°
2026-04-24 07:25 48.03813 16.01258 14976 ft 355 kts 276°
2026-04-24 07:26 48.03869 15.97541 15630 ft 360 kts 276°
2026-04-24 07:26 48.03925 15.93763 16271 ft 365 kts 276°
2026-04-24 07:26 48.03984 15.89949 16903 ft 370 kts 277°
2026-04-24 07:26 48.04044 15.86077 17525 ft 375 kts 277°
2026-04-24 07:27 48.04102 15.82154 18153 ft 380 kts 277°
2026-04-24 07:27 48.04160 15.78182 18730 ft 385 kts 277°
2026-04-24 07:27 48.04217 15.74165 19302 ft 389 kts 277°
2026-04-24 07:27 48.04271 15.70104 19899 ft 393 kts 276°
2026-04-24 07:28 48.04321 15.66001 20490 ft 397 kts 276°
2026-04-24 07:28 48.04371 15.61854 21069 ft 401 kts 276°
2026-04-24 07:28 48.04424 15.57678 21629 ft 405 kts 276°
2026-04-24 07:28 48.04477 15.53453 22182 ft 408 kts 275°
2026-04-24 07:29 48.04526 15.49182 22718 ft 412 kts 275°
2026-04-24 07:29 48.04571 15.44880 23240 ft 416 kts 275°
2026-04-24 07:29 48.04613 15.40595 23733 ft 419 kts 274°
2026-04-24 07:29 48.04656 15.36216 24212 ft 422 kts 274°
2026-04-24 07:30 48.04714 15.31812 24657 ft 426 kts 275°
2026-04-24 07:30 48.04785 15.27375 25113 ft 428 kts 275°
2026-04-24 07:30 48.04861 15.22908 25552 ft 431 kts 275°
2026-04-24 07:30 48.04939 15.18416 25966 ft 434 kts 275°
2026-04-24 07:31 48.05015 15.13896 26379 ft 436 kts 275°
2026-04-24 07:31 48.05086 15.09352 26779 ft 439 kts 275°
2026-04-24 07:31 48.05152 15.04769 27174 ft 441 kts 275°
2026-04-24 07:31 48.05213 15.00170 27564 ft 444 kts 275°
2026-04-24 07:32 48.05271 14.95550 27956 ft 446 kts 275°
2026-04-24 07:32 48.05328 14.90901 28320 ft 448 kts 275°
2026-04-24 07:32 48.05385 14.86232 28674 ft 450 kts 275°
2026-04-24 07:32 48.05444 14.81604 29012 ft 452 kts 275°
2026-04-24 07:33 48.05493 14.76897 29333 ft 455 kts 275°
2026-04-24 07:33 48.05534 14.72168 29644 ft 457 kts 275°
2026-04-24 07:33 48.05570 14.67403 29960 ft 458 kts 275°
2026-04-24 07:33 48.05601 14.62630 30147 ft 459 kts 275°
2026-04-24 07:34 48.05627 14.57924 30183 ft 446 kts 275°
2026-04-24 07:34 48.05652 14.53327 30183 ft 440 kts 275°
2026-04-24 07:34 48.05707 14.44218 30183 ft 437 kts 275°
2026-04-24 07:35 48.05756 14.35143 30192 ft 437 kts 274°
2026-04-24 07:35 48.04716 14.26111 30193 ft 448 kts 254°
2026-04-24 07:36 48.02038 14.17638 30192 ft 452 kts 247°
2026-04-24 07:36 47.99259 14.09281 30190 ft 452 kts 247°
2026-04-24 07:37 47.96474 14.00886 30186 ft 452 kts 247°
2026-04-24 07:37 47.93680 13.92498 30183 ft 451 kts 247°
2026-04-24 07:38 47.90881 13.84130 30182 ft 451 kts 246°
2026-04-24 07:38 47.88070 13.75764 30183 ft 451 kts 246°
2026-04-24 07:39 47.85263 13.67418 30183 ft 451 kts 246°
2026-04-24 07:39 47.82452 13.59084 30186 ft 451 kts 246°
2026-04-24 07:40 47.79629 13.50752 30183 ft 451 kts 246°
2026-04-24 07:40 47.76790 13.42430 30189 ft 452 kts 246°
2026-04-24 07:41 47.73942 13.34109 30194 ft 452 kts 246°
2026-04-24 07:41 47.71115 13.25841 30197 ft 452 kts 246°
2026-04-24 07:42 47.69687 13.21661 29650 ft 455 kts 246°
2026-04-24 07:42 47.68249 13.17454 28980 ft 455 kts 246°
2026-04-24 07:42 47.66818 13.13287 28364 ft 452 kts 246°
2026-04-24 07:42 47.65387 13.09148 27752 ft 450 kts 246°
2026-04-24 07:43 47.63963 13.05034 27147 ft 447 kts 246°
2026-04-24 07:43 47.62546 13.00947 26551 ft 444 kts 245°
2026-04-24 07:43 47.61139 12.96888 25974 ft 441 kts 245°
2026-04-24 07:43 47.59742 12.92862 25404 ft 438 kts 245°
2026-04-24 07:44 47.58353 12.88867 24849 ft 434 kts 245°
2026-04-24 07:44 47.56975 12.84902 24304 ft 431 kts 245°
2026-04-24 07:44 47.56052 12.82248 23943 ft 429 kts 245°
2026-04-24 07:44 47.54707 12.78382 23425 ft 426 kts 245°
2026-04-24 07:45 47.53355 12.74504 22895 ft 422 kts 245°
2026-04-24 07:45 47.52013 12.70669 22385 ft 418 kts 245°
2026-04-24 07:45 47.50677 12.66857 21857 ft 416 kts 245°
2026-04-24 07:45 47.49349 12.63077 21330 ft 414 kts 245°
2026-04-24 07:46 47.48027 12.59314 20804 ft 410 kts 245°
2026-04-24 07:46 47.46711 12.55580 20263 ft 408 kts 245°
2026-04-24 07:46 47.45403 12.51879 19723 ft 406 kts 245°
2026-04-24 07:46 47.44109 12.48226 19171 ft 394 kts 245°
2026-04-24 07:47 47.42859 12.44713 18660 ft 378 kts 245°
2026-04-24 07:47 47.41657 12.41335 18170 ft 367 kts 245°
2026-04-24 07:47 47.40521 12.37940 17666 ft 366 kts 251°
2026-04-24 07:47 47.39850 12.34352 17181 ft 362 kts 265°
2026-04-24 07:48 47.39704 12.30653 16392 ft 365 kts 277°
2026-04-24 07:48 47.40019 12.26930 15416 ft 365 kts 282°
2026-04-24 07:48 47.40379 12.23239 14441 ft 361 kts 281°
2026-04-24 07:48 47.40730 12.19592 13485 ft 357 kts 281°
2026-04-24 07:49 47.41071 12.15991 12580 ft 351 kts 281°
2026-04-24 07:49 47.41401 12.12453 11695 ft 345 kts 280°
2026-04-24 07:49 47.41721 12.08984 10811 ft 338 kts 280°
2026-04-24 07:49 47.42030 12.05599 10241 ft 324 kts 279°
2026-04-24 07:50 47.42316 12.02445 10110 ft 297 kts 279°
2026-04-24 07:50 47.42584 11.99553 9705 ft 282 kts 278°
2026-04-24 07:50 47.42541 11.96686 9504 ft 279 kts 259°
2026-04-24 07:50 47.41844 11.94022 9501 ft 281 kts 240°
2026-04-24 07:51 47.40559 11.91846 9499 ft 285 kts 220°
2026-04-24 07:51 47.38876 11.90264 9504 ft 287 kts 213°
2026-04-24 07:51 47.37196 11.88798 9499 ft 273 kts 213°
2026-04-24 07:51 47.35606 11.87414 9497 ft 258 kts 213°
2026-04-24 07:52 47.34195 11.85929 9499 ft 240 kts 229°
2026-04-24 07:52 47.33248 11.83999 9502 ft 226 kts 247°
2026-04-24 07:52 47.32742 11.81907 9497 ft 211 kts 255°
2026-04-24 07:52 47.32372 11.79838 9453 ft 210 kts 260°
2026-04-24 07:53 47.32070 11.77706 9029 ft 214 kts 260°
2026-04-24 07:53 47.31770 11.75561 8634 ft 214 kts 260°
2026-04-24 07:53 47.31470 11.73417 8262 ft 213 kts 259°
2026-04-24 07:53 47.31171 11.71295 7907 ft 209 kts 260°
2026-04-24 07:54 47.30877 11.69218 7558 ft 205 kts 260°
2026-04-24 07:54 47.30588 11.67173 7222 ft 203 kts 259°
2026-04-24 07:54 47.30303 11.65159 6884 ft 198 kts 259°
2026-04-24 07:54 47.30024 11.63195 6560 ft 196 kts 259°
2026-04-24 07:55 47.29747 11.61234 6236 ft 194 kts 259°
2026-04-24 07:55 47.29475 11.59324 5911 ft 192 kts 259°
2026-04-24 07:55 47.29202 11.57403 5597 ft 191 kts 259°
2026-04-24 07:55 47.28933 11.55499 5276 ft 188 kts 259°
2026-04-24 07:56 47.28657 11.53626 4998 ft 186 kts 258°
2026-04-24 07:56 47.28382 11.51770 4666 ft 186 kts 258°
2026-04-24 07:56 47.28105 11.49892 4333 ft 190 kts 258°
2026-04-24 07:56 47.27827 11.47983 4005 ft 192 kts 258°
2026-04-24 07:57 47.27549 11.46062 3738 ft 190 kts 258°
2026-04-24 07:57 47.27181 11.44224 3716 ft 187 kts 243°
2026-04-24 07:57 47.26486 11.42613 3711 ft 186 kts 235°
2026-04-24 07:57 47.25731 11.41072 3713 ft 186 kts 234°
2026-04-24 07:58 47.24980 11.39567 3708 ft 173 kts 234°
2026-04-24 07:58 47.24312 11.38234 3687 ft 154 kts 234°
2026-04-24 07:58 47.23692 11.36982 3700 ft 149 kts 234°
2026-04-24 07:58 47.23228 11.35645 3696 ft 146 kts 258°
2026-04-24 07:59 47.23097 11.34175 3743 ft 144 kts 266°
2026-04-24 07:59 47.23041 11.32714 3727 ft 143 kts 268°
2026-04-24 07:59 47.22998 11.31273 3720 ft 142 kts 268°
2026-04-24 07:59 47.22956 11.29823 3719 ft 142 kts 268°
2026-04-24 08:00 47.22915 11.28371 3715 ft 142 kts 268°
2026-04-24 08:00 47.23284 11.27103 3563 ft 139 kts 332°
2026-04-24 08:00 47.24209 11.27070 3309 ft 139 kts 29°
2026-04-24 08:00 47.24893 11.28049 3037 ft 139 kts 52°
2026-04-24 08:01 47.25382 11.29273 2773 ft 139 kts 66°
2026-04-24 08:01 47.25633 11.30647 2494 ft 139 kts 82°
2026-04-24 08:01 47.25764 11.32084 2117 ft 142 kts 80°
2026-04-24 08:01 47.25919 11.33497 1910 ft 134 kts 81°
2026-04-24 08:02 47.26043 11.34672 1904 ft 85 kts 81°
2026-04-24 08:02 47.26088 11.35086 1901 ft 0 kts 81°
2026-04-24 08:02 47.26094 11.35136 1904 ft 6 kts 81°
2026-04-24 08:02 47.26099 11.35190 1899 ft 5 kts 81°
2026-04-24 08:03 47.26098 11.35230 1892 ft 3 kts 110°
2026-04-24 08:03 47.26085 11.35251 1905 ft 2 kts 144°
2026-04-24 08:03 47.26072 11.35256 1904 ft 3 kts 166°
2026-04-24 08:03 47.26038 11.35265 1893 ft 6 kts 174°
2026-04-24 08:04 47.25995 11.35273 1900 ft 6 kts 172°
2026-04-24 08:04 47.25957 11.35281 1892 ft 5 kts 172°
2026-04-24 08:04 47.25922 11.35288 1893 ft 5 kts 172°
2026-04-24 08:04 47.25903 11.35271 1898 ft 3 kts 242°
2026-04-24 08:05 47.25900 11.35242 1894 ft 3 kts 264°
2026-04-24 08:05 47.25898 11.35217 1901 ft 2 kts 264°
2026-04-24 08:05 47.25896 11.35193 1896 ft 3 kts 261°
2026-04-24 08:05 47.25882 11.35168 1899 ft 4 kts 210°
2026-04-24 08:06 47.25850 11.35172 1904 ft 5 kts 166°
2026-04-24 08:06 47.25834 11.35176 1904 ft 0 kts 172°